User: anonymous   Login
Location: Unspecified
(35.6961°N, 0.0000°E)
Time: 03:48:25
(UTC+00:00)
Language:

Explorer 7 - Orbit

View from above orbital plane
View from above orbital plane
View from above satellite
View from above satellite

Ground track
Ground track

The orbit data is extracted from the following two-line orbital elements,

1    22U 59009A   19142.53679592 -.00000105  00000-0  15384-4 0  9992
2    22  50.2832 140.5292 0140255 201.7732 157.7215 14.94863657166697
Epoch (UTC): 22 May 2019 12:52:59
Eccentricity: 0.0140255
inclination: 50.2832°
perigee height: 485 km
apogee height: 680 km
right ascension of ascending node: 140.5292°
argument of perigee: 201.7732°
revolutions per day: 14.94863657
mean anomaly at epoch: 157.7215°
orbit number at epoch: 16669

The dashed part of the orbit path shows where the satellite is in the earth's shadow,  

DLR